sat.trackr.live / text

‹ back to catalog

STARLINK-35133

NORAD 65535 · 2025-200R

PAYLOAD ACTIVE UNKNOWN

§ Identity

Operator
Country
US
Launch date
2025-09-06
Launch site
AFWTR
Launch vehicle
Mass (kg)
RCS (m²)

Purposes: comms

External: N2YO · Heavens-Above · Gunter

§ Orbital elements

Epoch: 2026-05-25T02:49:48.300096Z

Period
95.64 min
Inclination
97.4485°
Eccentricity
0.0002579
Mean motion
15.05663950 rev/d
Perigee alt
547.7 km
Apogee alt
551.3 km
Semi-major
6,927.6 km
B*
3.8295e-4
RAAN
214.8051°
Arg perigee
118.8244°
Mean anomaly
241.3242°
Rev number
4,063

§ Raw data

STARLINK-351331 65535U 25200R   26145.11792014  .00005473  00000+0  38295-3 0  99942 65535  97.4485 214.8051 0002579 118.8244 241.3242 15.05663950 40636

JSON: /api/v1/satellites/65535 · /tle

For live sub-satellite position, see the globe view (requires WebGL).

§ Visibility from observer

Set your observer location to see the next 7 days of passes ≥ 10°. The values pass through the URL so the page stays shareable.

No JS? Fill the form by hand. The geolocation button needs JavaScript.